Year,Month,Day,Hour,Minute,Value (Times are PST for temperature in C)
2021,04,15,00,00,9.20
2021,04,15,00,01,9.20
2021,04,15,00,02,9.20
2021,04,15,00,03,9.20
2021,04,15,00,04,9.10
2021,04,15,00,05,9.10
2021,04,15,00,06,9.10
2021,04,15,00,07,9.10
2021,04,15,00,08,9.00
2021,04,15,00,09,9.00
2021,04,15,00,10,8.90
2021,04,15,00,11,8.90
2021,04,15,00,12,8.90
2021,04,15,00,13,8.90
2021,04,15,00,14,8.80
2021,04,15,00,15,8.80
2021,04,15,00,16,8.80
2021,04,15,00,17,8.80
2021,04,15,00,18,8.70
2021,04,15,00,19,8.70
2021,04,15,00,20,8.70
2021,04,15,00,21,8.70
2021,04,15,00,22,8.70
2021,04,15,00,23,8.60
2021,04,15,00,24,8.60
2021,04,15,00,25,8.60
2021,04,15,00,26,8.60
2021,04,15,00,27,8.60
2021,04,15,00,28,8.50
2021,04,15,00,29,8.50
2021,04,15,00,30,8.50
2021,04,15,00,31,8.50
2021,04,15,00,32,8.50
2021,04,15,00,33,8.40
2021,04,15,00,34,8.40
2021,04,15,00,35,8.40
2021,04,15,00,36,8.40
2021,04,15,00,37,8.40
2021,04,15,00,38,8.40
2021,04,15,00,39,8.40
2021,04,15,00,40,8.40
2021,04,15,00,41,8.30
2021,04,15,00,42,8.30
2021,04,15,00,43,8.30
2021,04,15,00,44,8.30
2021,04,15,00,45,8.30
2021,04,15,00,46,8.20
2021,04,15,00,47,8.20
2021,04,15,00,48,8.20
2021,04,15,00,49,8.20
2021,04,15,00,50,8.20
2021,04,15,00,51,8.20
2021,04,15,00,52,8.10
2021,04,15,00,53,8.10
2021,04,15,00,54,8.10
2021,04,15,00,55,8.10
2021,04,15,00,56,8.10
2021,04,15,00,57,8.10
2021,04,15,00,58,8.10
2021,04,15,00,59,8.10
2021,04,15,01,00,8.10
2021,04,15,01,01,8.00
2021,04,15,01,02,8.00
2021,04,15,01,03,8.00
2021,04,15,01,04,8.00
2021,04,15,01,05,8.00
2021,04,15,01,06,8.00
2021,04,15,01,07,8.00
2021,04,15,01,08,7.90
2021,04,15,01,09,7.90
2021,04,15,01,10,7.90
2021,04,15,01,11,7.90
2021,04,15,01,12,7.90
2021,04,15,01,13,7.90
2021,04,15,01,14,7.80
2021,04,15,01,15,7.80
2021,04,15,01,16,7.80
2021,04,15,01,17,7.80
2021,04,15,01,18,7.80
2021,04,15,01,19,7.80
2021,04,15,01,20,7.80
2021,04,15,01,21,7.70
2021,04,15,01,22,7.70
2021,04,15,01,23,7.70
2021,04,15,01,24,7.70
2021,04,15,01,25,7.70
2021,04,15,01,26,7.70
2021,04,15,01,27,7.60
2021,04,15,01,28,7.60
2021,04,15,01,29,7.60
2021,04,15,01,30,7.60
2021,04,15,01,31,7.60
2021,04,15,01,32,7.50
2021,04,15,01,33,7.50
2021,04,15,01,34,7.50
2021,04,15,01,35,7.50
2021,04,15,01,36,7.50
2021,04,15,01,37,7.40
2021,04,15,01,38,7.40
2021,04,15,01,39,7.40
2021,04,15,01,40,7.40
2021,04,15,01,41,7.40
2021,04,15,01,42,7.40
2021,04,15,01,43,7.40
2021,04,15,01,44,7.40
2021,04,15,01,45,7.40
2021,04,15,01,46,7.40
2021,04,15,01,47,7.40
2021,04,15,01,48,7.40
2021,04,15,01,49,7.40
2021,04,15,01,50,7.30
2021,04,15,01,51,7.30
2021,04,15,01,52,7.30
2021,04,15,01,53,7.30
2021,04,15,01,54,7.30
2021,04,15,01,55,7.30
2021,04,15,01,56,7.30
2021,04,15,01,57,7.30
2021,04,15,01,58,7.30
2021,04,15,01,59,7.30
2021,04,15,02,00,7.30
2021,04,15,02,01,7.30
2021,04,15,02,02,7.30
2021,04,15,02,03,7.40
2021,04,15,02,04,7.40
2021,04,15,02,05,7.40
2021,04,15,02,06,7.50
2021,04,15,02,07,7.50
2021,04,15,02,08,7.60
2021,04,15,02,09,7.60
2021,04,15,02,10,7.70
2021,04,15,02,11,7.70
2021,04,15,02,12,7.70
2021,04,15,02,13,7.70
2021,04,15,02,14,7.80
2021,04,15,02,15,7.80
2021,04,15,02,16,7.80
2021,04,15,02,17,7.80
2021,04,15,02,18,7.70
2021,04,15,02,19,7.70
2021,04,15,02,20,7.70
2021,04,15,02,21,7.70
2021,04,15,02,22,7.70
2021,04,15,02,23,7.70
2021,04,15,02,24,7.70
2021,04,15,02,25,7.80
2021,04,15,02,26,7.70
2021,04,15,02,27,7.70
2021,04,15,02,28,7.70
2021,04,15,02,29,7.70
2021,04,15,02,30,7.70
2021,04,15,02,31,7.60
2021,04,15,02,32,7.60
2021,04,15,02,33,7.60
2021,04,15,02,34,7.60
2021,04,15,02,35,7.60
2021,04,15,02,36,7.60
2021,04,15,02,37,7.60
2021,04,15,02,38,7.60
2021,04,15,02,39,7.60
2021,04,15,02,40,7.60
2021,04,15,02,41,7.60
2021,04,15,02,42,7.60
2021,04,15,02,43,7.60
2021,04,15,02,44,7.60
2021,04,15,02,45,7.60
2021,04,15,02,46,7.60
2021,04,15,02,47,7.60
2021,04,15,02,48,7.60
2021,04,15,02,49,7.60
2021,04,15,02,50,7.60
2021,04,15,02,51,7.60
2021,04,15,02,52,7.60
2021,04,15,02,53,7.60
2021,04,15,02,54,7.60
2021,04,15,02,55,7.50
2021,04,15,02,56,7.50
2021,04,15,02,57,7.50
2021,04,15,02,58,7.50
2021,04,15,02,59,7.50
2021,04,15,03,00,7.40
2021,04,15,03,01,7.40
2021,04,15,03,02,7.40
2021,04,15,03,03,7.40
2021,04,15,03,04,7.40
2021,04,15,03,05,7.40
2021,04,15,03,06,7.40
2021,04,15,03,07,7.30
2021,04,15,03,08,7.30
2021,04,15,03,09,7.30
2021,04,15,03,10,7.20
2021,04,15,03,11,7.20
2021,04,15,03,12,7.20
2021,04,15,03,13,7.20
2021,04,15,03,14,7.20
2021,04,15,03,15,7.10
2021,04,15,03,16,7.10
2021,04,15,03,17,7.10
2021,04,15,03,18,7.10
2021,04,15,03,19,7.00
2021,04,15,03,20,7.00
2021,04,15,03,21,7.00
2021,04,15,03,22,7.00
2021,04,15,03,23,6.90
2021,04,15,03,24,6.90
2021,04,15,03,25,6.90
2021,04,15,03,26,6.90
2021,04,15,03,27,6.80
2021,04,15,03,28,6.80
2021,04,15,03,29,6.80
2021,04,15,03,30,6.80
2021,04,15,03,31,6.80
2021,04,15,03,32,6.70
2021,04,15,03,33,6.70
2021,04,15,03,34,6.70
2021,04,15,03,35,6.70
2021,04,15,03,36,6.70
2021,04,15,03,37,6.70
2021,04,15,03,38,6.60
2021,04,15,03,39,6.60
2021,04,15,03,40,6.60
2021,04,15,03,41,6.60
2021,04,15,03,42,6.60
2021,04,15,03,43,6.60
2021,04,15,03,44,6.50
2021,04,15,03,45,6.50
2021,04,15,03,46,6.50
2021,04,15,03,47,6.50
2021,04,15,03,48,6.40
2021,04,15,03,49,6.40
2021,04,15,03,50,6.40
2021,04,15,03,51,6.40
2021,04,15,03,52,6.30
2021,04,15,03,53,6.30
2021,04,15,03,54,6.30
2021,04,15,03,55,6.30
2021,04,15,03,56,6.30
2021,04,15,03,57,6.30
2021,04,15,03,58,6.30
2021,04,15,03,59,6.30
2021,04,15,04,00,6.20
2021,04,15,04,01,6.20
2021,04,15,04,02,6.20
2021,04,15,04,03,6.20
2021,04,15,04,04,6.20
2021,04,15,04,05,6.20
2021,04,15,04,06,6.20
2021,04,15,04,07,6.30
2021,04,15,04,08,6.30
2021,04,15,04,09,6.30
2021,04,15,04,10,6.30
2021,04,15,04,11,6.30
2021,04,15,04,12,6.30
2021,04,15,04,13,6.30
2021,04,15,04,14,6.30
2021,04,15,04,15,6.30
2021,04,15,04,16,6.30
2021,04,15,04,17,6.30
2021,04,15,04,18,6.40
2021,04,15,04,19,6.40
2021,04,15,04,20,6.30
2021,04,15,04,21,6.40
2021,04,15,04,22,6.40
2021,04,15,04,23,6.40
2021,04,15,04,24,6.40
2021,04,15,04,25,6.40
2021,04,15,04,26,6.40
2021,04,15,04,27,6.40
2021,04,15,04,28,6.40
2021,04,15,04,29,6.40
2021,04,15,04,30,6.40
2021,04,15,04,31,6.40
2021,04,15,04,32,6.50
2021,04,15,04,33,6.50
2021,04,15,04,34,6.50
2021,04,15,04,35,6.50
2021,04,15,04,36,6.50
2021,04,15,04,37,6.50
2021,04,15,04,38,6.50
2021,04,15,04,39,6.50
2021,04,15,04,40,6.50
2021,04,15,04,41,6.50
2021,04,15,04,42,6.50
2021,04,15,04,43,6.50
2021,04,15,04,44,6.50
2021,04,15,04,45,6.40
2021,04,15,04,46,6.40
2021,04,15,04,47,6.40
2021,04,15,04,48,6.40
2021,04,15,04,49,6.40
2021,04,15,04,50,6.40
2021,04,15,04,51,6.40
2021,04,15,04,52,6.40
2021,04,15,04,53,6.40
2021,04,15,04,54,6.40
2021,04,15,04,55,6.40
2021,04,15,04,56,6.40
2021,04,15,04,57,6.50
2021,04,15,04,58,6.50
2021,04,15,04,59,6.50
2021,04,15,05,00,6.60
2021,04,15,05,01,6.60
2021,04,15,05,02,6.60
2021,04,15,05,03,6.60
2021,04,15,05,04,6.60
2021,04,15,05,05,6.60
2021,04,15,05,06,6.60
2021,04,15,05,07,6.60
2021,04,15,05,08,6.60
2021,04,15,05,09,6.60
2021,04,15,05,10,6.60
2021,04,15,05,11,6.60
2021,04,15,05,12,6.60
2021,04,15,05,13,6.50
2021,04,15,05,14,6.50
2021,04,15,05,15,6.50
2021,04,15,05,16,6.50
2021,04,15,05,17,6.40
2021,04,15,05,18,6.40
2021,04,15,05,19,6.40
2021,04,15,05,20,6.40
2021,04,15,05,21,6.40
2021,04,15,05,22,6.40
2021,04,15,05,23,6.40
2021,04,15,05,24,6.40
2021,04,15,05,25,6.40
2021,04,15,05,26,6.30
2021,04,15,05,27,6.30
2021,04,15,05,28,6.30
2021,04,15,05,29,6.30
2021,04,15,05,30,6.30
2021,04,15,05,31,6.20
2021,04,15,05,32,6.20
2021,04,15,05,33,6.20
2021,04,15,05,34,6.20
2021,04,15,05,35,6.20
2021,04,15,05,36,6.20
2021,04,15,05,37,6.10
2021,04,15,05,38,6.10
2021,04,15,05,39,6.10
2021,04,15,05,40,6.10
2021,04,15,05,41,6.10
2021,04,15,05,42,6.10
2021,04,15,05,43,6.10
2021,04,15,05,44,6.10
2021,04,15,05,45,6.10
2021,04,15,05,46,6.10
2021,04,15,05,47,6.10
2021,04,15,05,48,6.10
2021,04,15,05,49,6.10
2021,04,15,05,50,6.10
2021,04,15,05,51,6.10
2021,04,15,05,52,6.10
2021,04,15,05,53,6.10
2021,04,15,05,54,6.10
2021,04,15,05,55,6.10
2021,04,15,05,56,6.10
2021,04,15,05,57,6.10
2021,04,15,05,58,6.10
2021,04,15,05,59,6.10
2021,04,15,06,00,6.10
2021,04,15,06,01,6.10
2021,04,15,06,02,6.10
2021,04,15,06,03,6.10
2021,04,15,06,04,6.10
2021,04,15,06,05,6.10
2021,04,15,06,06,6.10
2021,04,15,06,07,6.10
2021,04,15,06,08,6.10
2021,04,15,06,09,6.10
2021,04,15,06,10,6.10
2021,04,15,06,11,6.10
2021,04,15,06,12,6.00
2021,04,15,06,13,6.00
2021,04,15,06,14,6.00
2021,04,15,06,15,6.00
2021,04,15,06,16,6.00
2021,04,15,06,17,6.00
2021,04,15,06,18,6.00
2021,04,15,06,19,6.00
2021,04,15,06,20,5.90
2021,04,15,06,21,5.90
2021,04,15,06,22,5.90
2021,04,15,06,23,6.00
2021,04,15,06,24,6.00
2021,04,15,06,25,6.00
2021,04,15,06,26,5.90
2021,04,15,06,27,5.90
2021,04,15,06,28,5.90
2021,04,15,06,29,5.90
2021,04,15,06,30,5.90
2021,04,15,06,31,5.90
2021,04,15,06,32,5.90
2021,04,15,06,33,5.90
2021,04,15,06,34,5.90
2021,04,15,06,35,5.90
2021,04,15,06,36,5.90
2021,04,15,06,37,5.90
2021,04,15,06,38,5.90
2021,04,15,06,39,5.90
2021,04,15,06,40,5.90
2021,04,15,06,41,5.90
2021,04,15,06,42,5.80
2021,04,15,06,43,5.80
2021,04,15,06,44,5.80
2021,04,15,06,45,5.80
2021,04,15,06,46,5.80
2021,04,15,06,47,5.80
2021,04,15,06,48,5.80
2021,04,15,06,49,5.80
2021,04,15,06,50,5.80
2021,04,15,06,51,5.80
2021,04,15,06,52,5.80
2021,04,15,06,53,5.80
2021,04,15,06,54,5.80
2021,04,15,06,55,5.90
2021,04,15,06,56,5.90
2021,04,15,06,57,5.90
2021,04,15,06,58,5.90
2021,04,15,06,59,6.00
2021,04,15,07,00,6.00
2021,04,15,07,01,6.00
2021,04,15,07,02,6.10
2021,04,15,07,03,6.10
2021,04,15,07,04,6.10
2021,04,15,07,05,6.20
2021,04,15,07,06,6.30
2021,04,15,07,07,6.30
2021,04,15,07,08,6.40
2021,04,15,07,09,6.40
2021,04,15,07,10,6.40
2021,04,15,07,11,6.50
2021,04,15,07,12,6.50
2021,04,15,07,13,6.50
2021,04,15,07,14,6.60
2021,04,15,07,15,6.60
2021,04,15,07,16,6.60
2021,04,15,07,17,6.70
2021,04,15,07,18,6.70
2021,04,15,07,19,6.80
2021,04,15,07,20,6.80
2021,04,15,07,21,6.80
2021,04,15,07,22,6.90
2021,04,15,07,23,6.90
2021,04,15,07,24,7.00
2021,04,15,07,25,7.00
2021,04,15,07,26,7.10
2021,04,15,07,27,7.10
2021,04,15,07,28,7.10
2021,04,15,07,29,7.20
2021,04,15,07,30,7.20
2021,04,15,07,31,7.20
2021,04,15,07,32,7.30
2021,04,15,07,33,7.30
2021,04,15,07,34,7.30
2021,04,15,07,35,7.40
2021,04,15,07,36,7.40
2021,04,15,07,37,7.40
2021,04,15,07,38,7.50
2021,04,15,07,39,7.60
2021,04,15,07,40,7.60
2021,04,15,07,41,7.60
2021,04,15,07,42,7.70
2021,04,15,07,43,7.70
2021,04,15,07,44,7.70
2021,04,15,07,45,7.80
2021,04,15,07,46,7.80
2021,04,15,07,47,7.80
2021,04,15,07,48,7.90
2021,04,15,07,49,7.90
2021,04,15,07,50,7.90
2021,04,15,07,51,8.00
2021,04,15,07,52,8.00
2021,04,15,07,53,8.10
2021,04,15,07,54,8.10
2021,04,15,07,55,8.20
2021,04,15,07,56,8.20
2021,04,15,07,57,8.30
2021,04,15,07,58,8.30
2021,04,15,07,59,8.40
2021,04,15,08,00,8.50
2021,04,15,08,01,8.60
2021,04,15,08,02,8.60
2021,04,15,08,03,8.70
2021,04,15,08,04,8.80
2021,04,15,08,05,8.80
2021,04,15,08,06,8.90
2021,04,15,08,07,9.00
2021,04,15,08,08,9.00
2021,04,15,08,09,9.10
2021,04,15,08,10,9.20
2021,04,15,08,11,9.30
2021,04,15,08,12,9.30
2021,04,15,08,13,9.40
2021,04,15,08,14,9.50
2021,04,15,08,15,9.60
2021,04,15,08,16,9.60
2021,04,15,08,17,9.70
2021,04,15,08,18,9.80
2021,04,15,08,19,9.90
2021,04,15,08,20,10.00
2021,04,15,08,21,10.00
2021,04,15,08,22,10.10
2021,04,15,08,23,10.20
2021,04,15,08,24,10.30
2021,04,15,08,25,10.40
2021,04,15,08,26,10.40
2021,04,15,08,27,10.50
2021,04,15,08,28,10.60
2021,04,15,08,29,10.70
2021,04,15,08,30,10.80
2021,04,15,08,31,10.80
2021,04,15,08,32,10.90
2021,04,15,08,33,11.00
2021,04,15,08,34,11.00
2021,04,15,08,35,11.10
2021,04,15,08,36,11.20
2021,04,15,08,37,11.20
2021,04,15,08,38,11.30
2021,04,15,08,39,11.30
2021,04,15,08,40,11.40
2021,04,15,08,41,11.40
2021,04,15,08,42,11.50
2021,04,15,08,43,11.60
2021,04,15,08,44,11.70
2021,04,15,08,45,11.80
2021,04,15,08,46,11.80
2021,04,15,08,47,12.00
2021,04,15,08,48,12.00
2021,04,15,08,49,12.10
2021,04,15,08,50,12.20
2021,04,15,08,51,12.20
2021,04,15,08,52,12.30
2021,04,15,08,53,12.40
2021,04,15,08,54,12.40
2021,04,15,08,55,12.50
2021,04,15,08,56,12.60
2021,04,15,08,57,12.70
2021,04,15,08,58,12.70
2021,04,15,08,59,12.80
2021,04,15,09,00,12.80
2021,04,15,09,01,12.80
2021,04,15,09,02,12.90
2021,04,15,09,03,12.90
2021,04,15,09,04,12.90
2021,04,15,09,05,13.00
2021,04,15,09,06,13.10
2021,04,15,09,07,13.10
2021,04,15,09,08,13.10
2021,04,15,09,09,13.20
2021,04,15,09,10,13.20
2021,04,15,09,11,13.20
2021,04,15,09,12,13.30
2021,04,15,09,13,13.30
2021,04,15,09,14,13.30
2021,04,15,09,15,13.30
2021,04,15,09,16,13.30
2021,04,15,09,17,13.30
2021,04,15,09,18,13.30
2021,04,15,09,19,13.40
2021,04,15,09,20,13.40
2021,04,15,09,21,13.40
2021,04,15,09,22,13.40
2021,04,15,09,23,13.40
2021,04,15,09,24,13.40
2021,04,15,09,25,13.40
2021,04,15,09,26,13.40
2021,04,15,09,27,13.40
2021,04,15,09,28,13.40
2021,04,15,09,29,13.50
2021,04,15,09,30,13.50
2021,04,15,09,31,13.50
2021,04,15,09,32,13.60
2021,04,15,09,33,13.60
2021,04,15,09,34,13.60
2021,04,15,09,35,13.60
2021,04,15,09,36,13.60
2021,04,15,09,37,13.60
2021,04,15,09,38,13.60
2021,04,15,09,39,13.60
2021,04,15,09,40,13.60
2021,04,15,09,41,13.60
2021,04,15,09,42,13.60
2021,04,15,09,43,13.60
2021,04,15,09,44,13.70
2021,04,15,09,45,13.70
2021,04,15,09,46,13.70
2021,04,15,09,47,13.70
2021,04,15,09,48,13.70
2021,04,15,09,49,13.70
2021,04,15,09,50,13.80
2021,04,15,09,51,13.80
2021,04,15,09,52,13.80
2021,04,15,09,53,13.80
2021,04,15,09,54,13.70
2021,04,15,09,55,13.70
2021,04,15,09,56,13.70
2021,04,15,09,57,13.70
2021,04,15,09,58,13.70
2021,04,15,09,59,13.60
2021,04,15,10,00,13.60
2021,04,15,10,01,13.60
2021,04,15,10,02,13.60
2021,04,15,10,03,13.70
2021,04,15,10,04,13.70
2021,04,15,10,05,13.70
2021,04,15,10,06,13.70
2021,04,15,10,07,13.80
2021,04,15,10,08,13.80
2021,04,15,10,09,13.80
2021,04,15,10,10,13.90
2021,04,15,10,11,13.90
2021,04,15,10,12,13.90
2021,04,15,10,13,13.90
2021,04,15,10,14,13.90
2021,04,15,10,15,13.90
2021,04,15,10,16,13.90
2021,04,15,10,17,13.90
2021,04,15,10,18,13.90
2021,04,15,10,19,13.90
2021,04,15,10,20,14.00
2021,04,15,10,21,14.00
2021,04,15,10,22,14.10
2021,04,15,10,23,14.10
2021,04,15,10,24,14.10
2021,04,15,10,25,14.10
2021,04,15,10,26,14.20
2021,04,15,10,27,14.20
2021,04,15,10,28,14.10
2021,04,15,10,29,14.10
2021,04,15,10,30,14.10
2021,04,15,10,31,14.10
2021,04,15,10,32,14.10
2021,04,15,10,33,14.20
2021,04,15,10,34,14.20
2021,04,15,10,35,14.20
2021,04,15,10,36,14.30
2021,04,15,10,37,14.30
2021,04,15,10,38,14.30
2021,04,15,10,39,14.30
2021,04,15,10,40,14.40
2021,04,15,10,41,14.50
2021,04,15,10,42,14.50
2021,04,15,10,43,14.60
2021,04,15,10,44,14.60
2021,04,15,10,45,14.60
2021,04,15,10,46,14.60
2021,04,15,10,47,14.70
2021,04,15,10,48,14.70
2021,04,15,10,49,14.80
2021,04,15,10,50,14.80
2021,04,15,10,51,14.80
2021,04,15,10,52,14.90
2021,04,15,10,53,15.00
2021,04,15,10,54,15.00
2021,04,15,10,55,15.10
2021,04,15,10,56,15.10
2021,04,15,10,57,15.10
2021,04,15,10,58,15.20
2021,04,15,10,59,15.20
2021,04,15,11,00,15.20
2021,04,15,11,01,15.30
2021,04,15,11,02,15.40
2021,04,15,11,03,15.40
2021,04,15,11,04,15.50
2021,04,15,11,05,15.50
2021,04,15,11,06,15.50
2021,04,15,11,07,15.60
2021,04,15,11,08,15.60
2021,04,15,11,09,15.70
2021,04,15,11,10,15.80
2021,04,15,11,11,15.80
2021,04,15,11,12,15.80
2021,04,15,11,13,15.80
2021,04,15,11,14,15.80
2021,04,15,11,15,15.90
2021,04,15,11,16,15.90
2021,04,15,11,17,16.00
2021,04,15,11,18,16.00
2021,04,15,11,19,15.90
2021,04,15,11,20,15.90
2021,04,15,11,21,15.90
2021,04,15,11,22,15.90
2021,04,15,11,23,15.90
2021,04,15,11,24,15.90
2021,04,15,11,25,15.90
2021,04,15,11,26,15.90
2021,04,15,11,27,15.80
2021,04,15,11,28,15.80
2021,04,15,11,29,15.70
2021,04,15,11,30,15.70
2021,04,15,11,31,15.70
2021,04,15,11,32,15.70
2021,04,15,11,33,15.70
2021,04,15,11,34,15.80
2021,04,15,11,35,15.80
2021,04,15,11,36,15.80
2021,04,15,11,37,15.90
2021,04,15,11,38,15.90
2021,04,15,11,39,16.00
2021,04,15,11,40,16.10
2021,04,15,11,41,16.10
2021,04,15,11,42,16.20
2021,04,15,11,43,16.20
2021,04,15,11,44,16.30
2021,04,15,11,45,16.40
2021,04,15,11,46,16.50
2021,04,15,11,47,16.60
2021,04,15,11,48,16.60
2021,04,15,11,49,16.70
2021,04,15,11,50,16.70
2021,04,15,11,51,16.60
2021,04,15,11,52,16.60
2021,04,15,11,53,16.60
2021,04,15,11,54,16.50
2021,04,15,11,55,16.50
2021,04,15,11,56,16.40
2021,04,15,11,57,16.40
2021,04,15,11,58,16.50
2021,04,15,11,59,16.50
2021,04,15,12,00,16.60
2021,04,15,12,01,16.60
2021,04,15,12,02,16.60
2021,04,15,12,03,16.60
2021,04,15,12,04,16.70
2021,04,15,12,05,16.80
2021,04,15,12,06,16.80
2021,04,15,12,07,16.80
2021,04,15,12,08,16.80
2021,04,15,12,09,16.80
2021,04,15,12,10,16.80
2021,04,15,12,11,16.80
2021,04,15,12,12,16.80
2021,04,15,12,13,16.80
2021,04,15,12,14,16.80
2021,04,15,12,15,16.80
2021,04,15,12,16,16.80
2021,04,15,12,17,16.80
2021,04,15,12,18,16.80
2021,04,15,12,19,16.80
2021,04,15,12,20,16.80
2021,04,15,12,21,16.80
2021,04,15,12,22,16.80
2021,04,15,12,23,16.80
2021,04,15,12,24,16.90
2021,04,15,12,25,16.90
2021,04,15,12,26,17.10
2021,04,15,12,27,17.10
2021,04,15,12,28,17.20
2021,04,15,12,29,17.20
2021,04,15,12,30,17.20
2021,04,15,12,31,17.30
2021,04,15,12,32,17.30
2021,04,15,12,33,17.30
2021,04,15,12,34,17.40
2021,04,15,12,35,17.40
2021,04,15,12,36,17.40
2021,04,15,12,37,17.40
2021,04,15,12,38,17.50
2021,04,15,12,39,17.50
2021,04,15,12,40,17.60
2021,04,15,12,41,17.70
2021,04,15,12,42,17.70
2021,04,15,12,43,17.80
2021,04,15,12,44,17.80
2021,04,15,12,45,17.90
2021,04,15,12,46,17.90
2021,04,15,12,47,17.90
2021,04,15,12,48,17.90
2021,04,15,12,49,17.90
2021,04,15,12,50,17.90
2021,04,15,12,51,17.80
2021,04,15,12,52,17.80
2021,04,15,12,53,17.80
2021,04,15,12,54,17.90
2021,04,15,12,55,18.00
2021,04,15,12,56,18.00
2021,04,15,12,57,18.10
2021,04,15,12,58,18.10
2021,04,15,12,59,18.20
2021,04,15,13,00,18.10
2021,04,15,13,01,18.00
2021,04,15,13,02,18.00
2021,04,15,13,03,17.90
2021,04,15,13,04,17.90
2021,04,15,13,05,17.90
2021,04,15,13,06,17.80
2021,04,15,13,07,17.80
2021,04,15,13,08,17.80
2021,04,15,13,09,17.80
2021,04,15,13,10,17.80
2021,04,15,13,11,17.80
2021,04,15,13,12,17.90
2021,04,15,13,13,17.90
2021,04,15,13,14,18.00
2021,04,15,13,15,18.00
2021,04,15,13,16,18.00
2021,04,15,13,17,18.00
2021,04,15,13,18,17.90
2021,04,15,13,19,17.90
2021,04,15,13,20,17.80
2021,04,15,13,21,17.80
2021,04,15,13,22,17.80
2021,04,15,13,23,17.90
2021,04,15,13,24,17.90
2021,04,15,13,25,17.90
2021,04,15,13,26,17.90
2021,04,15,13,27,17.90
2021,04,15,13,28,17.90
2021,04,15,13,29,17.80
2021,04,15,13,30,17.80
2021,04,15,13,31,17.80
2021,04,15,13,32,17.80
2021,04,15,13,33,17.80
2021,04,15,13,34,17.90
2021,04,15,13,35,17.90
2021,04,15,13,36,18.00
2021,04,15,13,37,18.00
2021,04,15,13,38,18.10
2021,04,15,13,39,18.10
2021,04,15,13,40,18.20
2021,04,15,13,41,18.20
2021,04,15,13,42,18.20
2021,04,15,13,43,18.20
2021,04,15,13,44,18.20
2021,04,15,13,45,18.20
2021,04,15,13,46,18.20
2021,04,15,13,47,18.20
2021,04,15,13,48,18.20
2021,04,15,13,49,18.20
2021,04,15,13,50,18.30
2021,04,15,13,51,18.30
2021,04,15,13,52,18.40
2021,04,15,13,53,18.40
2021,04,15,13,54,18.50
2021,04,15,13,55,18.60
2021,04,15,13,56,18.60
2021,04,15,13,57,18.60
2021,04,15,13,58,18.60
2021,04,15,13,59,18.60
2021,04,15,14,00,18.60
2021,04,15,14,01,18.60
2021,04,15,14,02,18.60
2021,04,15,14,03,18.60
2021,04,15,14,04,18.70
2021,04,15,14,05,18.70
2021,04,15,14,06,18.80
2021,04,15,14,07,18.80
2021,04,15,14,08,18.80
2021,04,15,14,09,18.80
2021,04,15,14,10,18.80
2021,04,15,14,11,18.80
2021,04,15,14,12,18.80
2021,04,15,14,13,18.80
2021,04,15,14,14,18.80
2021,04,15,14,15,18.90
2021,04,15,14,16,18.90
2021,04,15,14,17,19.00
2021,04,15,14,18,19.00
2021,04,15,14,19,19.10
2021,04,15,14,20,19.10
2021,04,15,14,21,19.20
2021,04,15,14,22,19.20
2021,04,15,14,23,19.30
2021,04,15,14,24,19.20
2021,04,15,14,25,19.20
2021,04,15,14,26,19.20
2021,04,15,14,27,19.20
2021,04,15,14,28,19.20
2021,04,15,14,29,19.20
2021,04,15,14,30,19.20
2021,04,15,14,31,19.20
2021,04,15,14,32,19.10
2021,04,15,14,33,19.10
2021,04,15,14,34,19.10
2021,04,15,14,35,19.00
2021,04,15,14,36,19.00
2021,04,15,14,37,19.00
2021,04,15,14,38,19.00
2021,04,15,14,39,19.00
2021,04,15,14,40,19.00
2021,04,15,14,41,19.10
2021,04,15,14,42,19.20
2021,04,15,14,43,19.20
2021,04,15,14,44,19.20
2021,04,15,14,45,19.30
2021,04,15,14,46,19.30
2021,04,15,14,47,19.40
2021,04,15,14,48,19.40
2021,04,15,14,49,19.40
2021,04,15,14,50,19.40
2021,04,15,14,51,19.40
2021,04,15,14,52,19.40
2021,04,15,14,53,19.30
2021,04,15,14,54,19.30
2021,04,15,14,55,19.30
2021,04,15,14,56,19.30
2021,04,15,14,57,19.30
2021,04,15,14,58,19.30
2021,04,15,14,59,19.30
2021,04,15,15,00,19.30
2021,04,15,15,01,19.30
2021,04,15,15,02,19.30
2021,04,15,15,03,19.40
2021,04,15,15,04,19.40
2021,04,15,15,05,19.50
2021,04,15,15,06,19.60
2021,04,15,15,07,19.70
2021,04,15,15,08,19.70
2021,04,15,15,09,19.80
2021,04,15,15,10,19.90
2021,04,15,15,11,20.00
2021,04,15,15,12,20.00
2021,04,15,15,13,20.10
2021,04,15,15,14,20.20
2021,04,15,15,15,20.20
2021,04,15,15,16,20.20
2021,04,15,15,17,20.10
2021,04,15,15,18,20.10
2021,04,15,15,19,20.10
2021,04,15,15,20,20.00
2021,04,15,15,21,20.00
2021,04,15,15,22,20.00
2021,04,15,15,23,20.00
2021,04,15,15,24,19.90
2021,04,15,15,25,19.90
2021,04,15,15,26,19.90
2021,04,15,15,27,19.90
2021,04,15,15,28,19.90
2021,04,15,15,29,20.00
2021,04,15,15,30,20.00
2021,04,15,15,31,20.00
2021,04,15,15,32,20.00
2021,04,15,15,33,20.00
2021,04,15,15,34,20.10
2021,04,15,15,35,20.10
2021,04,15,15,36,20.20
2021,04,15,15,37,20.30
2021,04,15,15,38,20.30
2021,04,15,15,39,20.40
2021,04,15,15,40,20.40
2021,04,15,15,41,20.40
2021,04,15,15,42,20.50
2021,04,15,15,43,20.50
2021,04,15,15,44,20.50
2021,04,15,15,45,20.50
2021,04,15,15,46,20.50
2021,04,15,15,47,20.50
2021,04,15,15,48,20.50
2021,04,15,15,49,20.50
2021,04,15,15,50,20.50
2021,04,15,15,51,20.50
2021,04,15,15,52,20.50
2021,04,15,15,53,20.60
2021,04,15,15,54,20.50
2021,04,15,15,55,20.50
2021,04,15,15,56,20.40
2021,04,15,15,57,20.40
2021,04,15,15,58,20.40
2021,04,15,15,59,20.40
2021,04,15,16,00,20.50
2021,04,15,16,01,20.50
2021,04,15,16,02,20.50
2021,04,15,16,03,20.40
2021,04,15,16,04,20.40
2021,04,15,16,05,20.30
2021,04,15,16,06,20.30
2021,04,15,16,07,20.30
2021,04,15,16,08,20.30
2021,04,15,16,09,20.30
2021,04,15,16,10,20.30
2021,04,15,16,11,20.30
2021,04,15,16,12,20.30
2021,04,15,16,13,20.30
2021,04,15,16,14,20.30
2021,04,15,16,15,20.20
2021,04,15,16,16,20.30
2021,04,15,16,17,20.30
2021,04,15,16,18,20.30
2021,04,15,16,19,20.30
2021,04,15,16,20,20.40
2021,04,15,16,21,20.40
2021,04,15,16,22,20.40
2021,04,15,16,23,20.50
2021,04,15,16,24,20.50
2021,04,15,16,25,20.60
2021,04,15,16,26,20.60
2021,04,15,16,27,20.60
2021,04,15,16,28,20.60
2021,04,15,16,29,20.70
2021,04,15,16,30,20.70
2021,04,15,16,31,20.70
2021,04,15,16,32,20.70
2021,04,15,16,33,20.70
2021,04,15,16,34,20.70
2021,04,15,16,35,20.70
2021,04,15,16,36,20.80
2021,04,15,16,37,20.80
2021,04,15,16,38,20.80
2021,04,15,16,39,20.80
2021,04,15,16,40,20.80
2021,04,15,16,41,20.80
2021,04,15,16,42,20.80
2021,04,15,16,43,20.80
2021,04,15,16,44,20.80
2021,04,15,16,45,20.80
2021,04,15,16,46,20.80
2021,04,15,16,47,20.80
2021,04,15,16,48,20.80
2021,04,15,16,49,20.80
2021,04,15,16,50,20.80
2021,04,15,16,51,20.80
2021,04,15,16,52,20.80
2021,04,15,16,53,20.80
2021,04,15,16,54,20.80
2021,04,15,16,55,20.80
2021,04,15,16,56,20.80
2021,04,15,16,57,20.80
2021,04,15,16,58,20.80
2021,04,15,16,59,20.70
2021,04,15,17,00,20.70
2021,04,15,17,01,20.70
2021,04,15,17,02,20.70
2021,04,15,17,03,20.70
2021,04,15,17,04,20.70
2021,04,15,17,05,20.80
2021,04,15,17,06,20.80
2021,04,15,17,07,20.80
2021,04,15,17,08,20.80
2021,04,15,17,09,20.90
2021,04,15,17,10,20.90
2021,04,15,17,11,21.00
2021,04,15,17,12,21.00
2021,04,15,17,13,21.00
2021,04,15,17,14,21.10
2021,04,15,17,15,21.10
2021,04,15,17,16,21.10
2021,04,15,17,17,21.10
2021,04,15,17,18,21.10
2021,04,15,17,19,21.20
2021,04,15,17,20,21.20
2021,04,15,17,21,21.10
2021,04,15,17,22,21.10
2021,04,15,17,23,21.10
2021,04,15,17,24,21.10
2021,04,15,17,25,21.10
2021,04,15,17,26,21.10
2021,04,15,17,27,21.10
2021,04,15,17,28,21.10
2021,04,15,17,29,21.10
2021,04,15,17,30,21.10
2021,04,15,17,31,21.00
2021,04,15,17,32,21.00
2021,04,15,17,33,21.00
2021,04,15,17,34,21.00
2021,04,15,17,35,20.90
2021,04,15,17,36,20.90
2021,04,15,17,37,20.90
2021,04,15,17,38,20.90
2021,04,15,17,39,20.90
2021,04,15,17,40,21.00
2021,04,15,17,41,21.00